Regional Weather Roundup
Issued by NWS

Current Version | Previous Version | Text Only | Print | Product List | Glossary On
Versions: 1 2 3 4 5 6 7 8 9 10 11 12 13 14 15 16 17 18 19 20 21 22 23 24 25 26 27 28 29 30 31 32 33 34 35 36 37 38 39 40 41 42 43 44 45 46 47 48 49 50
000
ASHW40 PHFO 231333
RWRHI

WEATHER ROUNDUP FOR HAWAII
NATIONAL WEATHER SERVICE HONOLULU HI
300 AM HST FRI APR 23 2021

THIS IS AN AUTOMATED REPORT THAT HAS NOT BEEN QUALITY CONTROLLED.

NOTE..."FAIR" INDICATES FEW OR NO CLOUDS BELOW 12,000 FEET WITH NO
SIGNIFICANT WEATHER AND/OR OBSTRUCTIONS TO VISIBILITY.

* - THESE SITES REPORT LIMITED FIELDS
# - BUOY DATA PROVIDED BY PACIFIC ISLANDS OCEAN OBSERVING SYSTEM.

HIZ001-003-004-029>031-231400-
KAUAI-NIIHAU-

CITY           SKY/WX    TMP DP  RH WIND       PRES   REMARKS
LIHUE APT      CLOUDY    74  67  78 E12       30.05F
PORT ALLEN*      N/A     72 N/A N/A E10         N/A
POIPU*         NOT AVBL
PRINCEVILLE*     N/A     70 N/A N/A SE6         N/A
KOKOLE POINT*  NOT AVBL
MOLOAA DAIRY*    N/A     72  64  78 SE3G12      N/A
WAIMEA HTS*    NOT AVBL
PUU OPAE*      NOT AVBL
PUU LUA*       NOT AVBL
MAKAHA RIDGE*    N/A     64  61  88 S2          N/A
$$

HIZ006-007-009>011-032>036-231400-
OAHU-

CITY           SKY/WX    TMP DP  RH WIND       PRES   REMARKS
HONOLULU       PTCLDY    74  61  63 E8        30.03F
KALAELOA       CLEAR     71  61  70 NE5       30.04F
KANEOHE MCB    PTCLDY    74  64  71 E9        30.01
WHEELER FIELD  MOCLDY    65  60  82 CALM      30.06F
BELLOWS*         N/A     75 N/A N/A NE17        N/A
KAHUKU*          N/A     73 N/A N/A NE8G16      N/A
WHEELER*       NOT AVBL
WAIANAE HARBOR NOT AVBL
DILLINGHAM*      N/A    N/A N/A N/A CALM        N/A
KAHUKU TRN*      N/A     70  64  83 E6G17       N/A
KAWAILOA*      NOT AVBL
KII*             N/A     73  66  78 E17G25      N/A
MAKUA RANGE*     N/A     66  61  82 E3          N/A
OAHU FOREST NW NOT AVBL
SCHOFIELD BRK*   N/A     64  59  82 SW3         N/A
SCHOFIELD S*   NOT AVBL
WAIANAE VLY*   NOT AVBL
KUAOKALA*      NOT AVBL
HONOULIUULI*   NOT AVBL
MOKUOLOE IS*     N/A     75 N/A N/A MISG        N/A
PALEHUA*       NOT AVBL
WAIAWA PHB*    NOT AVBL
$$

HIZ037>041-231400-
MOLOKAI-

CITY           SKY/WX    TMP DP  RH WIND       PRES   REMARKS
MOLOKAI AIRPT  CLEAR     71  62  73 NE10G16   30.03F
KALAUPAPA      NOT AVBL
MAKAPULAPAI*   NOT AVBL
MOLOKAI 1*     NOT AVBL
PUU ALII*        N/A     55  53  92 NE2G12      N/A
$$

HIZ015-042>044-231400-
LANAI-

CITY           SKY/WX    TMP DP  RH WIND       PRES   REMARKS
LANAI CITY     FAIR      64  32  30 NE8       30.07F
LANAI 1*       NOT AVBL
$$

HIZ016-231400-
KAHOOLAWE-

CITY           SKY/WX    TMP DP  RH WIND       PRES   REMARKS
KAHOOLAWE*     NOT AVBL
HAKIOAWA*      NOT AVBL
HONOKANAIA*    NOT AVBL
KANELOA*         N/A     70  64  83 E20G29    30.08F
KEALIALALO*    NOT AVBL
LUA MAKIKA*    NOT AVBL
$$

HIZ017-018-022-045>050-231400-
MAUI-

CITY           SKY/WX    TMP DP  RH WIND       PRES   REMARKS
KAHULUI        CLEAR     72  64  76 E12       30.01S
KAPALUA-W MAUI NOT AVBL
HANA AIRPORT   PTCLDY    73  64  73 CALM      30.06S
HANA*            N/A     73 N/A N/A SE3         N/A
HALEAKALA SUMM   N/A     45   1  16 NE12        N/A  VSB 0
MAALAEA BAY*     N/A     72 N/A N/A N14         N/A
HALEAKALA*     NOT AVBL
KAUPO GAP*     NOT AVBL
KULA 1*          N/A     45  28  53 E1G7        N/A
$$

HIZ023-026-051>054-231400-
BIG ISLAND OF HAWAII COAST AND LOWER SLOPES-

CITY           SKY/WX    TMP DP  RH WIND       PRES   REMARKS
KAILUA KONA    PTCLDY    74  64  71 SE8       29.97F
HILO           CLOUDY    71  65  81 SW6       30.03F
HONOKAA*       NOT AVBL
KAWAIHAE MWT*  NOT AVBL
KAWAIHAE*        N/A     79 N/A N/A SE8         N/A
SOUTH POINT*     N/A     66 N/A N/A NE14G20     N/A
UPOLU AIRPORT*   N/A     75 N/A N/A E17G26      N/A
KAMUELA*       NOT AVBL
HAKALAU*         N/A     45  43  93 SW5         N/A
KALOKO-HONOKO*   N/A     70  63  78 E3        29.97F
PALI 2*          N/A     59  50  72 N10G20      N/A
KEALAKOMO*       N/A     73  59  60 N12G20      N/A
KAUPULEHU*     NOT AVBL
KAPAPALA*        N/A     56  55  96 NW3         N/A
LOWER KAHUKU*    N/A     55  54  94 N2          N/A
PUHE CS*         N/A     75  54  46 E13G29      N/A
PUHO CS*         N/A     70  65  84 E3          N/A
PTA KEAMUKU*   NOT AVBL
WAIKOLOA*      NOT AVBL
$$

HIZ027-028-231400-
BIG ISLAND OF HAWAII INTERIOR AND SUMMMITS-

CITY           SKY/WX    TMP DP  RH WIND       PRES   REMARKS
BRADSHAW FIELD CLEAR     46  40  79 E6        30.26F
MK VISITOR CEN   N/A     48  19  32 N8          N/A
MAUNA KEA*       N/A     32  14  47 W1          N/A
MAUNA LOA*     NOT AVBL
MAUNA LOA 1*   NOT AVBL
PTA KIPUKA*      N/A     52  52 100 SW1         N/A
PTA RANGE 17*    N/A     50  45  81 SE10        N/A
PTA WEST*        N/A     52  48  87 SE7         N/A
NENE CABIN*      N/A     43  30  61 NE6         N/A
AHUMOA*        NOT AVBL
PTA PORTABLE*  NOT AVBL
PUU MALI*        N/A     57   3  11 SE10        N/A
$$

HIC003-231400-
NORTHWEST ISLANDS-

CITY           SKY/WX    TMP DP  RH WIND       PRES   REMARKS
MIDWAY ISLAND  CLOUDY   N/A N/A N/A S17G28    29.96F
MIDWAY NOS*      N/A     73 N/A N/A MISG      29.96F
FRENCH FRIGATE NOT AVBL
$$

PHZ110>124-180-231400-
BUOY REPORTS

STATION/POSITION TIME  TEMP    WIND        PRES    WAVE   SWELL
                       AIR SEA DIR/SP/G            HT/PER HT/DIR
                 (UTC) (F)     (DEG/KT/KT) (MB)    (FT/S) (FT/D)
BUOY 51101       1310   71 74   50/ 16/ 19 1018.9
BUOY 51100       NOT AVBL
BUOY 51002       1310   76 77   60/ 17/ 21 1014.5
BUOY 51003       1310   76 78   60/  8/ 10 1016.0
BUOY 51004       1310   75 76   70/ 17/ 19 1013.8
WAIMEA BAY#      1227      77                N/A     5/11   3/330
MOKAPU POINT#    NOT AVBL
LANAI#           1256      78                N/A     3/14   2/190
BARBERS PT#      1256      77                N/A     3/14   2/200
PAUWELA#         1256      76                N/A     7/ 9   2/340
HILO#            1313      76                N/A     7/12   3/330
KANEOHE BAY#     1256      76                N/A     6/ 9   2/350
KANEOHE BAY 2#   NOT AVBL
HANALEI#         NOT AVBL
KAHULUI HARBOR   1254   74 78   70/ 16/ 20 1016.1F
HONOLULU HARBOR  1254   74 77   70/  1/  7 1017.2F
PEARL HARBOR#    1300      76                N/A     3/ 6   2/170
KILO NALU        NOT AVBL
HILO HARBOR      1254   69 77   70/  3/  6 1016.2F
MOKUOLOE         1236   75 79  100/  4/  9 1017.2F
NAWILIWILI       1254   75 82   60/  9/ 10   N/A
WHOTS BUOY       NOT AVBL
BUOY 51028       NOT AVBL
$$

......................KEY........................................
  SKY/WX - SKY CONDITIONS/PRESENT WEATHER
  TMP    - TEMPERATURE IN FAHRENHEIT
  DWPT   - DEWPOINT IN FAHRENHEIT
  RH     - RELATIVE HUMIDITY IN PERCENT
  WIND   - DIRECTION AND SPEED /MPH FOR ISLANDS...KTS FOR BUOYS/
  PRES   - MEAN SEA LEVEL PRESSURE IN INCHES OF HG
  VSB    - VISIBILITY IN MILES
  HX     - HEAT INDEX
  WCI    - WIND CHILL INDEX
  VRB    - VARIABLE WIND DIRECTION
  N/A    - NOT AVAILABLE



USA.gov is the U.S. government's official web portal to all federal, state and local government web resources and services.